This demonstration page uses our WeatherBlox Daily Observations layout. Learn more.

Left ArrowRight Arrow

Hourly Observations for December 9, 2022

Temp ( °F °C ) Dew Point ( °F °C ) Humidity (%) Winds ( mph kmh ) Pressure ( in mb ) Visibility ( mi km ) Precip ( " mm )
12:53 am 00:53 Cloudy 60 15.6 60 15.6 100 100 Calm 30.12 1020 10 16 0.00 0.00
1:27 am 01:27 Cloudy with Mist and Fog 59 15 59 15 100 100 Calm 30.12 1020 2 3 0.00 0.00
1:36 am 01:36 Mostly Cloudy with Mist and Fog 59 15 59 15 100 100 Calm 30.12 1020 3 5 0.00 0.00
1:53 am 01:53 Cloudy with Mist and Fog 59 15 59 15 100 100 Calm 30.10 1019 6 10 0.00 0.00
2:53 am 02:53 Cloudy with Mist and Fog 59 15 59 15 100 100 Calm 30.10 1019 5 8 0.00 0.00
3:53 am 03:53 Cloudy 60 15.6 60 15.6 100 100 Calm 30.09 1019 7 11 0.00 0.00
4:53 am 04:53 Cloudy 61 16.1 60 15.6 97 97 Calm 30.09 1019 7 11 0.01 0.13
5:53 am 05:53 Cloudy with Mist and Fog 61 16.1 60 15.6 97 97 Calm 30.09 1019 6 10 0.00 0.00
6:53 am 06:53 Cloudy 61 16.1 60 15.6 97 97 Calm 30.09 1019 7 11 0.00 0.00
7:34 am 07:34 Cloudy 61 16.1 60 15.6 97 97 Calm 30.11 1020 8 13 0.00 0.00
7:41 am 07:41 Cloudy 61 16.1 60 15.6 97 97 Calm 30.11 1020 8 13 0.00 0.00
7:53 am 07:53 Cloudy 62 16.7 60 15.6 93 93 Calm 30.10 1019 8 13 0.00 0.00
8:53 am 08:53 Sunny 63 17.2 61 16.1 93 93 SW 3 6 30.11 1020 9 14 0.00 0.00
9:53 am 09:53 Cloudy with Light Rain 64 17.8 61 16.1 90 90 Calm 30.13 1020 10 16 0.01 0.13
10:53 am 10:53 Cloudy 65 18.3 62 16.7 90 90 Calm 30.11 1020 10 16 0.01 0.13
11:38 am 11:38 Cloudy 67 19.4 62 16.7 84 84 Calm 30.11 1020 10 16 0.00 0.00
11:53 am 11:53 Cloudy 67 19.4 62 16.7 84 84 Calm 30.11 1020 10 16 0.00 0.00
12:20 pm 12:20 Cloudy with Light Rain 67 19.4 62 16.7 84 84 Calm 30.09 1019 9 14 0.01 0.13
12:53 pm 12:53 Cloudy with Light Rain 67 19.4 62 16.7 84 84 Calm 30.08 1019 5 8 0.01 0.25
1:08 pm 13:08 Cloudy with Rain 65 18.3 63 17.2 93 93 Calm 30.08 1019 2 3 0.05 1.27
1:18 pm 13:18 Cloudy with Light Rain 66 18.9 64 17.8 93 93 Calm 30.07 1018 3 5 0.07 1.78
1:40 pm 13:40 Cloudy with Mist and Fog 66 18.9 64 17.8 93 93 Calm 30.07 1018 6 10 0.07 1.78
1:53 pm 13:53 Cloudy with Light Rain 65 18.3 64 17.8 97 97 NNW 3 6 30.07 1018 3 4 0.10 2.54
2:08 pm 14:08 Cloudy with Light Rain 65 18.3 65 18.3 100 100 Calm 30.07 1018 3 4 0.03 0.76
2:17 pm 14:17 Cloudy with Heavy Rain 65 18.3 64 17.8 97 97 NE 3 6 30.07 1018 2 2 0.08 2.03
2:32 pm 14:32 Cloudy with Light Rain 63 17.2 62 16.7 97 97 NE 10 17 30.07 1018 3 5 0.11 2.79
2:41 pm 14:41 Cloudy with Rain 63 17.2 62 16.7 97 97 NNE 7 11 30.08 1018 2 3 0.19 4.83
2:48 pm 14:48 Cloudy with Rain 63 17 63 17 100 100 NE 8 13 30.07 1018 2 2 0.23 5.84
2:53 pm 14:53 Cloudy with Rain 62 16.7 62 16.7 100 100 VRB 5 7 30.07 1018 3 4 0.25 6.35
3:10 pm 15:10 Cloudy with Light Rain 62 16.7 62 16.7 100 100 NNE 7 11 30.08 1019 3 5 0.04 1.02
3:53 pm 15:53 Cloudy 62 16.7 62 16.7 100 100 ENE 6 9 30.07 1018 10 16 0.04 1.02
4:53 pm 16:53 Cloudy with Light Rain 61 16.1 59 15 93 93 ENE 7 11 30.08 1019 10 16 0.01 0.25
5:53 pm 17:53 Cloudy with Light Rain 60 15.6 60 15.6 100 100 NE 6 9 30.08 1019 9 14 0.08 2.03
6:53 pm 18:53 Cloudy with Light Rain 59 15 59 15 100 100 ENE 6 9 30.10 1019 4 6 0.08 2.03
7:53 pm 19:53 Cloudy 58 14.4 57 13.9 97 97 NE 6 9 30.11 1020 10 16 0.01 0.25
8:53 pm 20:53 Cloudy 58 14.4 57 13.9 97 97 NE 5 7 30.11 1020 10 16 0.00 0.00
9:53 pm 21:53 Cloudy 58 14.4 56 13.3 93 93 ENE 6 9 30.13 1020 10 16 0.00 0.00
10:53 pm 22:53 Cloudy 57 13.9 56 13.3 96 96 ENE 6 9 30.13 1020 10 16 0.00 0.00
11:53 pm 23:53 Cloudy 57 13.9 56 13.3 96 96 NNE 6 9 30.14 1021 10 16 0.00 0.00

Powered by AerisWeather